This demonstration page uses our WeatherBlox Daily Observations layout. Learn more.

Left ArrowRight Arrow

Hourly Observations for March 23, 2020

Temp ( °F °C ) Dew Point ( °F °C ) Humidity (%) Winds ( mph kmh ) Pressure ( in mb ) Visibility ( mi km ) Precip ( " mm )
12:53 am 00:53 Mostly Clear 30 -1.1 24 -4.4 79 79 NNW 3 6 29.87 1011 10 16 N/A
1:53 am 01:53 Mostly Cloudy 33 0.6 27 -2.8 78 78 SW 14 22 29.83 1010 10 16 N/A
2:53 am 02:53 Partly Cloudy 33 0.6 27 -2.8 78 78 SW 13 20 29.82 1010 10 16 N/A
3:53 am 03:53 Clear 32 undefined 26 -3.3 79 79 SW 10 17 29.81 1010 10 16 N/A
4:53 am 04:53 Clear 32 undefined 26 -3.3 79 79 SW 13 20 29.80 1009 10 16 N/A
5:53 am 05:53 Clear 31 -0.6 25 -3.9 79 79 VRB 5 7 29.79 1009 10 16 N/A
6:53 am 06:53 Clear 28 -2.2 23 -5 81 81 NE 6 9 29.79 1009 10 16 N/A
7:53 am 07:53 Sunny 28 -2.2 23 -5 81 81 NNE 5 7 29.79 1009 10 16 N/A
8:53 am 08:53 Sunny 35 1.7 27 -2.8 72 72 N N/A 29.77 1008 10 16 N/A
9:53 am 09:53 Sunny 37 2.8 27 -2.8 67 67 N N/A 29.75 1008 10 16 N/A
10:53 am 10:53 Sunny 40 4.4 31 -0.6 70 70 E 5 7 29.74 1007 10 16 N/A
11:53 am 11:53 Mostly Sunny 51 10.6 32 undefined 48 48 N 12 19 29.70 1006 10 16 N/A
12:53 pm 12:53 Mostly Sunny 56 13.3 26 -3.3 32 32 SW 10 17 29.66 1005 10 16 N/A
1:53 pm 13:53 Sunny 57 13.9 27 -2.8 32 32 SW 13 20 29.64 1004 10 16 N/A
2:53 pm 14:53 Sunny 58 14.4 27 -2.8 31 31 SSW 15 24 29.60 1002 10 16 N/A
3:53 pm 15:53 Sunny 56 13.3 27 -2.8 33 33 SW 16 26 29.60 1003 10 16 N/A
4:53 pm 16:53 Mostly Sunny 56 13.3 31 -0.6 39 39 WSW 8 13 29.60 1003 10 16 N/A
5:53 pm 17:53 Sunny 50 10 37 2.8 61 61 N N/A 29.61 1003 10 16 N/A
6:53 pm 18:53 Mostly Sunny 45 7.2 36 2.2 71 71 E 5 7 29.62 1003 10 16 N/A
7:53 pm 19:53 Cloudy 42 5.6 35 1.7 76 76 NE 5 7 29.65 1004 10 16 N/A
8:53 pm 20:53 Partly Cloudy 39 3.9 33 0.6 79 79 S 5 7 29.65 1004 10 16 N/A
9:53 pm 21:53 Clear 36 2.2 32 undefined 86 86 NW 3 6 29.67 1005 10 16 N/A
10:53 pm 22:53 Clear 35 1.7 31 -0.6 85 85 SSW 5 7 29.67 1005 10 16 N/A
11:53 pm 23:53 Cloudy 41 5 31 -0.6 67 67 SW 13 20 29.68 1005 10 16 N/A

Powered by AerisWeather